Orbital Elements at Epoch 2459200.5 (2020-Dec-17.0) TDB
Reference: JPL 22 (heliocentric ecliptic J2000)
Element | Value | Uncertainty (1-sigma) | Units |
e | .2845144280337947 | 4.1207e-08 | |
a | 3.956753101414667 | 4.2809e-08 | au |
q | 2.830999755894729 | 1.6981e-07 | au |
i | 8.945344683524382 | 5.5444e-06 | deg |
node | 327.6995607275763 | 2.9649e-05 | deg |
peri | 41.15692605214793 | 3.1169e-05 | deg |
M | 261.0061148278931 | 1.1432e-05 | deg |
tp | 2459991.019746003250 (2023-Feb-15.51974600) | 0.00010101 | TDB |
period | 2874.794822593313 7.87 | 4.6655e-05 1.277e-07 | d yr |
n | .1252263282133119 | 2.0323e-09 | deg/d |
Q | 5.082506446934604 | 5.4989e-08 | au |
|
| | Orbit Determination Parameters
Additional Information
|